Wind_Speed
13 13 14 12 11 9 5 1 1 1 2 2 2 2 1 2 2 2 5 5 4 6 5 9 13 10 6 4 6 6 5 3 1 0 3 5 17 26 17 18 22 18 17 16 16 16 16 16 16 16 17 17 16 16 17 17 17 16 16 16 15 15 15 14 14 14 14 13 13 13 13 12 12 13 13 13 12 12 12 12 11 11 11 10 10 11 11 11 10 9 9 11 14 14 14 14 14
14 14 14 12 9 5 2 1 2 0 2 2 1 1 1 2 3 3 5 5 3 7 8 12 13 7 6 8 8 6 6 5 2 3 5 15 23 19 18 23 22 19 18 16 17 17 16 16 16 16 16 16 16 16 17 17 16 16 16 16 15 15 14 14 14 14 14 14 13 13 13 12 12 12 12 12 12 12 12 11 11 11 11 11 10 11 12 11 10 10 10 12 14 14 13 13 13
15 15 15 11 6 1 1 1 2 1 2 2 0 1 1 1 3 3 5 4 6 10 11 14 11 6 8 10 5 3 4 3 5 7 9 20 20 16 23 26 22 19 19 17 16 18 17 17 17 17 17 17 16 16 17 17 16 16 16 16 15 15 15 15 14 14 14 14 13 13 13 12 12 12 12 12 12 12 11 11 11 11 11 11 11 12 11 11 11 11 12 13 13 13 13 12 12
15 15 15 9 3 1 1 2 1 1 2 2 1 2 1 1 4 5 5 5 9 12 12 13 8 3 5 8 4 3 5 4 8 10 12 17 16 21 28 29 25 20 19 17 16 18 17 17 18 17 17 17 16 16 16 16 16 16 16 16 16 15 15 15 15 14 13 13 13 13 12 12 12 12 12 12 12 11 11 11 11 11 11 11 12 12 11 11 11 12 13 13 12 13 13 13 12
14 14 13 5 1 1 1 2 1 1 1 1 1 2 1 3 6 7 7 7 11 13 13 11 6 4 4 6 1 1 6 7 9 12 16 17 18 26 30 31 28 22 19 17 16 17 17 18 18 17 17 17 16 16 16 16 16 16 16 15 15 15 15 14 14 14 13 13 13 13 12 12 12 11 11 12 12 11 11 11 11 11 11 11 12 12 12 12 12 12 13 12 11 12 13 13 13
14 11 8 2 2 1 1 1 1 3 3 3 2 2 3 5 8 9 10 10 10 12 13 8 7 8 6 5 3 3 6 6 11 15 17 20 23 28 30 31 26 22 20 18 16 16 17 18 17 17 17 16 16 16 15 15 15 15 15 15 15 15 14 14 13 13 13 12 12 12 11 11 11 11 10 11 11 11 11 11 11 11 11 11 11 12 12 12 12 12 13 12 11 12 12 13 13
14 8 4 2 2 2 2 1 2 3 1 2 3 1 5 6 8 11 12 12 10 11 10 7 10 10 6 3 3 4 2 4 11 15 19 23 27 28 29 28 24 22 20 18 16 16 18 17 17 17 16 16 15 15 14 14 14 14 14 14 14 14 14 13 13 12 12 11 11 11 11 11 11 11 11 11 11 11 11 11 10 10 11 11 11 12 13 12 12 11 11 11 11 11 11 12 13
12 4 2 2 1 1 2 2 2 2 0 1 2 1 5 8 9 11 12 11 10 11 9 10 9 7 5 3 4 3 2 6 11 16 23 26 28 27 26 25 23 22 20 19 17 17 18 17 16 16 16 15 15 15 14 14 14 14 14 14 13 13 13 13 12 12 12 11 11 10 10 10 10 10 11 11 11 11 11 11 10 10 11 11 11 12 13 12 12 11 11 10 11 11 11 12 13
8 2 1 2 1 1 2 2 2 2 3 2 2 2 5 8 9 10 11 10 10 11 11 11 6 4 7 5 5 4 4 10 14 20 25 27 28 26 25 24 23 22 21 20 18 18 18 16 16 15 15 14 15 14 14 14 14 14 13 13 13 13 12 12 11 12 12 11 10 10 10 9 10 11 11 11 11 11 11 11 10 10 10 11 11 11 12 12 11 11 10 10 10 11 11 11 11
5 2 1 1 1 1 2 1 1 1 2 1 1 4 6 7 8 9 10 11 11 11 9 7 4 7 10 7 6 4 7 14 19 22 25 27 27 25 24 23 22 22 21 20 18 19 18 17 16 15 15 14 14 14 14 14 13 13 13 13 13 12 12 11 11 11 11 11 10 10 10 10 10 11 11 10 11 11 11 11 10 10 10 11 11 11 12 11 11 11 10 9 9 10 11 11 11
3 2 1 1 1 2 2 1 2 2 1 1 2 5 6 7 8 8 10 11 10 10 9 6 7 11 10 7 4 4 11 18 22 25 26 26 25 24 24 22 22 21 21 20 18 19 18 16 16 15 14 14 14 14 14 13 13 13 13 13 12 12 11 11 11 10 10 10 10 10 10 10 11 11 11 10 11 11 11 10 10 10 10 11 11 11 11 11 11 10 9 8 9 10 11 10 10
2 2 1 2 2 2 2 3 4 2 1 2 4 6 5 7 7 8 11 10 9 10 8 7 8 10 8 6 4 8 15 19 22 26 27 25 24 23 22 21 21 21 21 21 19 19 18 16 15 15 14 14 14 13 13 13 13 13 13 13 12 12 11 11 10 10 10 10 10 11 11 11 11 11 11 10 11 11 11 10 10 10 10 10 10 10 10 10 10 10 9 8 10 11 10 10 9
2 1 1 1 2 2 4 4 3 1 2 3 5 6 6 7 7 8 10 9 10 9 7 8 10 8 6 6 6 10 15 20 24 27 27 25 24 22 20 20 21 21 21 21 18 18 17 16 15 14 14 14 13 13 12 12 12 13 12 12 11 11 11 11 10 10 11 11 11 11 11 11 11 11 11 11 11 11 11 10 10 10 10 10 10 10 10 10 10 10 9 9 10 10 9 10 9
2 0 0 1 2 3 4 3 1 1 2 4 6 7 7 5 6 8 8 10 8 6 8 11 12 8 7 7 7 8 14 23 26 27 27 24 23 21 20 21 21 20 20 20 18 18 17 15 15 14 14 13 13 12 12 12 12 12 12 11 11 11 11 10 10 10 11 11 11 11 11 10 10 11 11 11 11 11 10 10 10 10 10 10 10 10 10 10 9 9 9 9 9 9 9 10 10
2 0 1 2 2 3 3 2 1 1 3 5 7 8 7 2 5 8 8 9 5 6 10 10 9 5 7 10 8 11 19 27 27 27 27 24 23 22 21 21 21 20 19 19 18 18 17 15 15 14 14 14 13 12 12 12 12 12 11 11 11 10 10 10 10 10 11 10 10 11 10 10 10 10 11 11 11 11 10 10 10 10 10 10 10 10 9 9 9 8 8 8 8 8 9 9 9
3 1 1 2 2 2 2 2 1 2 3 6 7 8 7 4 5 6 5 6 7 9 7 6 7 2 7 11 11 19 26 29 29 27 27 24 23 22 21 21 21 20 19 19 19 18 16 16 16 15 15 14 13 12 12 12 12 11 11 11 10 10 10 10 10 9 10 10 10 10 10 10 10 10 11 11 11 10 10 10 10 10 10 10 10 10 9 9 8 8 7 7 6 6 7 8 9
3 2 3 3 3 2 2 3 0 1 4 7 9 10 8 6 4 3 5 7 10 10 4 5 4 0 6 10 17 27 30 30 30 28 27 25 24 23 22 21 21 21 20 20 20 18 17 16 16 15 15 14 13 13 13 12 12 12 11 11 10 9 9 10 10 9 10 10 9 9 10 10 10 10 10 11 11 10 10 10 9 9 9 9 9 9 8 8 8 7 7 6 6 6 6 7 8
3 3 3 4 3 2 1 1 2 2 4 8 11 11 10 9 7 6 7 8 11 9 5 7 7 7 10 16 24 30 30 31 30 29 28 25 24 23 22 22 22 21 20 21 20 19 18 17 16 16 15 15 14 13 13 13 12 12 11 11 10 9 9 10 10 9 9 9 9 9 9 9 9 9 10 10 9 10 10 10 9 9 9 9 8 8 8 7 7 7 7 6 5 5 4 5 6
5 3 4 5 3 2 1 2 2 2 1 7 10 10 9 9 10 8 8 10 11 9 7 9 10 12 15 21 28 30 30 31 29 30 27 25 25 24 24 22 22 21 20 21 21 20 19 17 16 16 15 15 14 14 14 13 12 12 11 10 10 10 10 10 9 9 9 9 9 8 8 8 8 9 9 9 9 9 10 10 9 9 9 8 8 8 7 7 7 7 7 5 4 4 4 4 5
6 4 5 5 4 4 3 4 4 4 2 7 10 8 8 9 10 8 8 12 12 9 9 10 11 14 16 21 27 29 30 29 29 29 27 25 24 24 24 24 24 22 21 20 21 20 20 19 16 15 15 16 15 14 14 13 12 12 12 11 11 10 10 10 9 9 8 8 8 8 7 8 8 8 8 9 9 9 9 9 9 8 8 8 8 8 7 7 7 6 6 4 4 4 4 4 4
6 6 6 2 2 5 2 2 3 3 2 6 8 8 8 8 9 8 11 11 9 10 12 13 15 18 20 21 25 29 29 28 29 28 27 26 24 24 23 24 23 22 20 19 20 20 21 20 18 15 15 16 16 15 14 13 13 13 12 11 11 10 10 10 9 8 8 8 8 7 7 7 7 7 7 8 8 8 8 8 8 8 7 7 8 7 6 6 6 5 5 4 4 4 4 4 3
5 8 8 4 2 3 1 2 2 2 1 5 8 8 7 8 9 10 14 11 7 9 13 14 17 20 23 24 25 27 27 27 28 28 28 27 26 25 23 23 23 22 20 19 19 19 21 20 18 16 14 15 16 15 14 14 13 13 12 11 11 10 9 9 9 8 8 8 7 7 7 7 7 6 7 7 7 7 7 7 7 7 7 7 7 6 5 6 5 4 4 4 3 3 3 3 3
6 7 8 8 7 7 5 2 3 4 1 4 6 7 7 9 9 10 15 11 3 7 12 14 17 21 25 26 25 25 25 25 27 29 28 27 28 26 25 25 24 23 21 20 19 18 20 20 18 18 16 14 14 14 13 14 15 13 13 13 11 9 8 8 8 8 9 8 7 7 7 7 7 6 6 6 6 6 6 7 6 6 6 6 6 5 4 5 4 4 4 3 3 3 3 3 3
9 7 7 8 8 10 9 8 8 7 5 5 5 6 9 13 9 9 15 10 5 10 14 16 18 21 24 24 23 24 25 25 27 28 27 26 27 26 25 24 24 23 22 21 20 19 20 19 18 19 18 15 14 13 12 13 14 13 13 13 11 9 9 8 7 8 9 8 8 8 8 7 6 6 6 6 6 6 6 6 6 5 5 5 5 4 3 3 4 4 4 3 3 2 2 3 3
12 9 5 6 7 8 9 9 10 8 6 5 6 9 12 13 7 9 15 9 8 13 16 18 18 20 21 21 22 23 23 25 26 27 25 24 24 24 23 23 23 23 23 23 21 20 21 19 19 19 19 17 14 14 13 13 13 12 12 12 10 9 9 8 8 8 9 9 8 9 9 8 6 6 6 6 6 6 5 6 5 4 4 4 3 3 3 3 3 3 3 3 2 2 2 2 3
11 12 6 5 6 6 7 9 10 8 5 3 8 10 11 11 5 7 13 10 12 16 18 19 19 20 19 19 21 21 22 25 27 27 26 25 25 25 25 24 24 24 24 23 21 21 21 20 19 19 19 19 16 14 14 13 13 12 12 11 10 10 9 8 9 9 9 9 9 10 9 8 7 6 6 6 6 6 5 5 4 3 3 3 3 1 2 3 2 3 3 3 2 2 1 2 2
4 10 11 11 11 10 10 12 12 9 6 6 9 10 9 10 7 7 10 12 14 17 18 19 19 19 19 18 19 19 21 24 27 28 26 25 25 26 26 25 25 24 23 23 22 21 21 21 20 20 19 19 18 16 14 14 12 12 12 11 10 10 9 8 9 10 10 9 8 9 9 8 8 6 6 6 6 6 5 4 3 3 3 3 3 2 2 2 2 2 2 2 2 1 1 1 2
2 5 8 11 12 12 12 13 13 8 6 7 10 9 7 10 10 9 10 15 16 17 18 19 19 18 18 19 18 16 18 22 25 27 27 27 26 26 27 26 25 25 24 24 23 21 22 22 21 20 19 18 19 18 17 14 13 12 12 12 10 10 9 8 9 10 12 11 10 10 9 8 8 7 7 6 5 5 4 4 3 3 2 3 3 2 2 2 2 1 1 1 1 1 1 1 2
6 5 7 8 8 11 12 12 10 6 5 5 7 7 6 11 12 9 12 16 17 18 18 18 18 16 17 18 16 14 17 21 23 25 27 27 26 26 27 26 26 26 24 24 23 22 22 22 22 20 19 19 18 20 21 18 15 13 12 12 10 10 9 9 10 11 13 13 12 11 10 9 8 7 6 5 5 4 4 3 2 3 3 3 3 3 2 1 0 0 1 1 1 1 1 1 2
8 7 7 7 7 9 8 8 9 8 6 5 7 5 5 11 12 10 14 17 18 17 17 17 16 14 15 16 14 15 17 20 22 24 26 25 25 25 25 25 25 24 22 23 24 23 22 22 23 21 20 20 18 19 22 22 20 16 14 12 11 10 10 11 12 13 14 14 13 12 11 9 8 7 7 6 5 4 3 3 3 3 3 4 3 3 2 1 1 1 1 1 2 2 2 2 2
7 6 5 5 5 6 4 4 7 9 6 9 9 6 5 7 9 12 15 19 19 17 17 16 15 14 14 15 15 16 17 21 24 25 25 24 23 23 24 24 24 23 22 24 25 24 23 22 22 21 21 21 19 18 18 22 25 22 18 16 14 12 11 13 14 15 15 14 13 13 12 10 9 8 7 7 6 5 4 4 3 4 4 5 4 3 2 1 1 1 1 1 2 2 2 3 2
5 5 5 6 5 8 6 4 7 8 5 11 11 5 6 7 6 13 15 19 20 17 17 17 16 16 15 15 15 15 16 21 25 25 25 24 23 22 24 24 25 25 23 24 25 25 24 23 22 22 21 22 21 19 17 19 24 26 23 21 19 16 14 16 16 16 15 15 14 13 13 11 10 9 8 8 7 6 6 5 4 5 6 6 5 4 2 2 1 1 1 2 2 2 3 3 2
5 6 5 6 7 9 6 3 8 10 5 10 13 5 4 5 5 13 15 19 20 16 17 18 17 17 16 15 14 15 15 18 21 24 26 25 24 23 24 25 26 25 24 24 25 26 26 24 23 22 22 22 21 20 18 16 20 25 25 23 21 19 19 18 18 17 16 15 15 14 14 13 11 11 10 9 8 7 7 6 6 6 6 6 6 4 3 2 2 2 2 2 2 2 2 1 2
5 6 6 5 8 9 6 2 5 10 8 9 13 10 7 3 5 12 16 18 18 16 17 18 17 16 15 14 14 15 16 17 18 23 28 27 25 25 24 25 26 25 24 24 26 26 26 25 24 23 22 22 21 20 18 16 19 23 23 23 23 21 21 19 18 18 17 16 16 16 15 13 13 12 11 10 9 8 8 7 7 7 7 7 7 6 4 3 3 3 3 3 3 3 2 1 2
9 8 6 6 7 9 8 4 2 8 11 10 12 13 12 6 5 11 15 18 18 17 17 17 17 16 15 15 15 15 16 18 19 24 29 28 26 26 25 25 25 25 24 24 26 26 26 25 24 24 22 22 22 20 17 16 17 21 21 22 23 22 22 21 20 19 18 17 16 16 15 14 13 12 11 11 10 9 9 8 8 7 8 8 8 7 5 4 3 3 3 3 4 3 2 1 2
8 9 6 7 8 8 8 6 2 4 8 10 12 12 13 10 8 11 13 16 17 15 15 14 15 15 15 14 14 16 17 18 20 25 29 28 27 26 25 25 25 25 24 25 26 26 27 26 24 24 23 23 23 20 18 16 17 20 21 22 23 23 24 22 22 20 19 19 18 17 16 14 13 12 12 12 11 10 9 9 8 8 9 9 9 7 6 5 4 4 3 3 3 3 1 2 2
3 6 8 8 9 9 7 6 4 4 5 8 11 12 13 12 10 12 13 15 14 14 15 14 14 15 15 16 16 17 18 16 18 24 27 28 27 27 25 25 25 26 25 26 27 27 29 28 26 26 25 24 23 22 21 19 21 23 22 21 22 23 25 24 23 22 20 19 19 18 17 15 14 13 13 13 12 10 9 9 9 9 10 10 10 8 7 5 5 5 4 3 3 2 1 1 1
5 4 7 8 9 9 6 4 4 4 5 7 9 10 13 13 11 11 13 15 15 16 17 16 17 17 15 17 19 18 15 13 16 20 24 27 27 27 26 25 26 27 27 28 28 29 29 29 28 27 26 25 25 25 24 23 27 29 26 25 24 22 25 26 23 22 22 20 20 19 18 16 15 14 14 14 14 12 10 9 9 10 10 11 11 9 8 6 6 6 5 4 4 3 2 2 2
10 4 5 5 6 6 8 6 5 5 5 6 7 9 12 12 10 11 14 16 16 17 19 18 19 19 17 18 18 17 16 15 17 19 23 27 28 28 27 26 27 28 28 28 29 28 29 30 29 28 27 26 26 27 27 29 32 33 30 28 26 21 22 24 22 21 23 21 20 20 19 18 16 14 14 15 15 13 12 11 11 11 11 11 11 10 9 8 8 7 6 5 4 4 3 2 3
12 8 6 5 4 4 6 4 2 5 7 7 6 7 10 8 7 10 15 16 14 15 18 17 17 19 19 19 18 18 19 19 19 20 21 25 28 29 29 27 27 28 27 28 29 29 30 31 30 29 29 27 28 28 29 33 34 32 30 28 27 22 19 21 21 22 23 22 22 22 20 19 17 16 15 15 15 14 14 13 12 12 12 11 10 10 10 9 9 8 7 6 5 4 3 3 4
12 13 11 8 6 6 5 2 4 4 8 9 7 7 8 7 7 9 12 14 13 13 15 15 14 15 15 15 16 17 19 19 20 21 21 23 27 29 30 30 28 28 29 29 30 31 30 31 32 32 31 30 31 33 34 34 32 30 28 24 20 18 16 15 16 18 22 24 23 23 23 21 18 17 16 15 16 16 16 15 14 14 14 13 12 11 11 10 10 8 7 8 7 6 5 3 3
10 15 17 13 9 8 7 7 6 4 5 6 7 8 7 6 10 11 9 12 14 13 14 17 16 15 14 13 16 17 17 18 18 21 21 23 26 28 30 31 29 29 30 30 30 30 29 29 31 32 31 32 33 35 35 31 30 29 26 22 17 16 15 15 19 21 23 26 23 22 23 22 20 18 17 16 16 17 17 17 16 15 15 15 14 13 12 11 10 9 9 8 7 7 6 5 4
8 11 16 17 13 10 9 8 6 5 4 1 3 8 6 4 9 11 10 13 16 15 15 19 17 15 15 15 15 17 17 18 17 19 20 22 26 28 29 31 31 30 30 29 28 29 29 28 30 32 32 32 32 34 33 28 29 29 27 27 23 20 19 19 25 26 24 27 25 22 23 23 21 19 18 17 17 17 17 17 17 16 16 16 15 14 14 13 11 10 10 9 8 7 7 6 6
8 6 10 15 15 14 13 10 7 6 6 5 6 7 6 6 6 6 10 14 16 16 17 19 16 16 18 17 17 18 19 19 17 19 20 21 25 28 29 31 32 30 28 28 28 29 30 29 31 33 32 32 32 32 31 28 29 29 29 29 24 23 23 21 25 26 24 26 26 25 24 24 23 21 20 19 18 18 17 17 17 16 16 16 16 16 16 15 13 11 11 10 10 9 8 7 6
7 5 8 11 14 15 13 10 9 7 6 8 8 5 5 8 5 3 8 13 14 16 18 19 17 18 19 19 19 19 20 20 19 19 20 22 25 29 31 31 31 30 29 29 29 29 29 30 32 33 33 32 32 33 34 32 33 32 31 28 24 24 25 22 22 23 24 25 25 25 25 24 24 22 22 21 20 19 18 18 18 17 17 17 17 17 17 16 15 13 12 11 11 10 10 9 7
5 5 7 10 12 13 12 10 8 8 8 11 10 7 6 8 6 5 7 10 13 14 15 16 17 18 19 19 20 19 18 18 19 19 20 22 27 30 31 30 30 31 30 29 29 28 28 29 31 33 33 32 31 34 36 35 36 35 31 29 26 25 25 22 20 20 22 24 23 24 25 26 25 24 24 23 23 22 20 19 19 19 18 17 17 17 16 17 17 15 14 13 12 11 11 11 9
7 6 6 6 8 8 8 8 6 7 10 12 13 11 8 9 8 8 7 8 9 10 11 13 15 17 18 17 18 17 16 16 17 18 19 22 27 29 29 30 31 31 30 29 29 28 28 29 31 33 33 32 31 34 36 36 36 34 32 31 30 27 25 24 21 20 21 24 24 24 25 26 26 26 25 24 24 24 23 22 21 20 20 19 18 17 17 16 15 16 16 14 12 12 12 11 10
10 9 8 4 4 5 5 6 6 10 10 9 12 13 11 12 9 7 9 10 9 10 12 13 16 18 17 17 17 17 17 17 17 17 17 19 22 25 29 30 31 31 30 30 31 29 29 29 31 32 33 33 32 33 35 35 34 32 32 33 33 30 27 26 26 24 24 25 25 24 25 26 26 27 26 26 26 26 25 24 22 22 22 22 20 19 18 16 14 15 16 16 14 13 12 11 10
11 10 9 7 5 5 7 7 7 10 8 5 8 11 11 12 10 8 10 10 10 11 12 13 16 18 17 18 18 17 17 17 17 16 16 18 19 22 27 30 31 31 31 31 31 30 30 30 31 32 32 34 34 33 34 34 33 33 33 33 32 31 29 30 30 28 27 28 27 25 26 26 27 28 28 28 27 27 27 26 23 23 23 22 21 20 19 17 16 15 16 17 16 14 13 11 11
13 11 10 10 8 7 9 8 7 8 6 4 6 6 8 10 9 11 15 14 13 12 11 12 14 16 17 18 18 17 17 17 16 16 17 18 18 21 26 30 30 31 32 32 32 32 30 30 32 33 32 34 35 33 33 34 33 34 34 33 32 31 30 31 31 30 29 31 30 29 28 27 28 29 29 29 29 27 28 27 25 24 23 22 21 20 20 18 17 16 17 17 16 16 15 13 12
11 12 10 10 9 8 8 7 7 7 4 6 9 6 7 7 2 4 11 16 15 14 13 13 13 14 15 15 16 17 17 17 16 17 19 19 20 24 27 29 29 31 33 34 33 32 31 31 33 34 32 33 35 34 33 33 34 34 34 34 32 32 31 30 31 31 32 33 32 30 31 30 29 30 30 30 30 28 28 28 27 25 23 22 21 21 20 19 18 17 16 16 15 16 16 15 13
10 11 11 11 10 8 6 5 6 5 5 6 9 5 3 2 4 3 4 9 13 14 15 15 14 14 13 12 14 16 16 17 17 17 19 20 21 24 26 27 29 31 33 35 34 34 33 32 33 35 34 33 35 35 34 34 34 32 33 34 32 32 32 29 29 33 34 34 33 32 33 33 31 31 31 31 30 29 28 28 28 27 25 23 22 21 21 20 19 18 17 16 15 15 17 17 14
7 10 12 10 9 9 7 5 2 3 8 7 7 8 5 3 9 9 7 6 9 12 13 16 16 15 14 13 14 15 16 17 17 17 19 20 20 23 27 28 30 32 34 36 35 35 35 33 33 35 34 33 35 36 35 34 33 32 32 34 33 32 33 31 30 33 33 31 33 34 33 33 33 32 31 30 30 29 28 28 28 27 26 25 23 23 22 21 20 19 18 18 16 15 16 17 16
5 9 11 8 7 9 8 7 5 6 9 6 6 11 10 6 7 9 12 11 10 10 11 14 16 14 15 14 14 16 17 18 19 20 20 20 20 23 28 30 32 35 36 36 34 34 35 35 35 36 35 34 35 36 35 34 33 32 31 33 33 32 33 31 30 30 30 28 31 33 32 31 33 32 30 30 29 29 28 28 28 28 27 26 24 23 23 23 21 21 20 19 18 16 14 16 18
9 7 8 9 8 10 9 7 8 9 9 6 6 8 9 10 7 6 13 16 14 12 10 12 15 14 14 15 16 17 17 17 17 18 17 18 19 23 28 31 33 35 34 33 34 34 35 36 36 37 38 37 36 35 34 33 33 32 31 32 34 34 32 31 29 28 29 30 30 31 31 32 32 32 31 30 29 28 28 28 28 28 28 27 26 25 24 24 23 22 21 19 18 17 14 14 16
12 8 8 9 7 7 9 8 6 7 8 7 7 7 8 10 7 7 10 14 16 14 10 10 13 13 13 14 15 15 15 15 16 17 17 18 20 25 31 33 34 35 34 33 35 35 36 36 35 36 36 36 35 35 34 34 34 32 30 31 33 34 33 32 29 29 31 32 32 32 32 31 31 32 31 30 30 29 28 29 28 27 27 27 27 26 25 25 25 24 22 18 16 16 15 14 15
9 9 9 11 7 4 6 8 8 7 7 6 7 7 7 4 5 9 12 11 13 14 10 9 11 13 15 15 14 14 15 16 17 17 18 19 21 25 32 34 34 33 32 32 35 35 35 35 35 36 35 35 35 35 34 34 34 32 31 32 33 34 34 32 29 30 32 32 32 33 32 30 31 33 32 31 30 30 29 29 27 27 27 27 27 27 26 26 25 25 23 20 16 14 14 15 15
2 4 6 9 8 7 8 9 10 9 8 7 7 7 7 3 3 8 13 13 14 14 13 11 10 13 14 14 14 15 15 16 18 18 19 19 19 23 29 31 31 30 30 34 35 35 36 36 36 36 35 35 36 35 33 33 33 32 33 34 33 33 34 32 29 29 30 30 31 32 33 31 30 32 33 32 30 30 30 29 28 27 28 28 27 27 27 26 26 26 24 22 19 16 15 15 15
Wind_Direction
141 145 148 146 138 139 145 176 249 186 241 278 277 281 192 204 189 170 155 149 139 146 141 133 141 140 134 137 137 89 52 140 141 96 121 108 142 150 152 152 152 145 143 140 136 133 133 136 133 130 126 125 124 122 122 121 121 121 121 121 122 122 123 124 124 123 122 122 122 120 118 120 123 124 124 122 122 119 117 116 112 109 108 107 106 100 94 91 91 90 93 94 93 96 94 91 92
146 146 146 143 137 142 124 231 273 103 263 284 262 240 92 142 180 197 164 158 140 141 144 139 139 132 117 114 124 106 64 42 44 79 100 128 136 144 154 155 152 145 143 138 136 135 137 139 135 133 129 128 128 127 126 124 124 123 123 122 122 122 121 120 118 116 114 114 114 113 112 117 119 119 120 120 119 118 115 114 112 109 107 105 101 95 91 91 90 88 90 91 93 98 98 97 96
147 144 144 142 135 200 69 164 273 11 291 295 33 153 125 173 166 155 154 150 133 139 142 141 132 114 126 130 133 108 84 55 113 115 122 138 139 150 158 155 150 145 143 139 138 137 140 142 139 137 134 134 132 130 127 125 124 122 122 122 120 118 116 116 115 114 112 111 111 112 115 119 120 120 120 120 119 117 116 115 112 108 104 102 98 94 92 91 87 87 91 95 100 104 105 102 98
148 148 148 147 140 255 178 174 255 293 277 287 32 120 203 200 137 126 132 129 137 143 144 143 124 86 137 136 119 69 101 116 132 129 139 149 148 154 157 155 150 145 143 141 140 138 141 145 142 140 138 136 132 129 127 126 124 122 121 118 117 115 115 116 115 114 112 111 112 113 116 116 116 117 117 118 118 116 117 114 112 109 105 103 100 96 93 90 84 86 95 102 110 113 110 106 99
146 150 154 160 182 207 223 206 210 240 279 317 4 62 166 153 139 133 121 128 143 147 149 149 121 90 84 91 53 84 115 122 142 145 147 152 148 151 156 156 151 147 145 142 141 139 142 146 144 142 139 135 133 130 128 126 123 121 121 118 117 117 116 116 115 114 113 113 113 114 113 113 112 111 112 114 114 114 115 110 108 107 106 105 102 100 95 90 86 89 99 104 108 109 107 105 100
142 149 168 247 298 276 266 232 258 251 287 283 287 31 138 145 140 136 124 129 142 150 151 146 123 119 95 64 22 92 113 121 150 157 153 150 147 151 156 156 152 149 147 145 143 139 143 147 145 143 139 136 134 131 128 126 124 123 121 120 119 118 117 115 116 114 114 114 113 114 113 114 112 110 108 109 109 107 107 106 107 109 108 106 104 104 98 91 89 91 99 105 106 103 100 99 99
147 148 182 257 271 251 277 281 288 269 303 236 267 2 149 149 139 136 134 137 140 151 151 134 126 120 105 105 93 90 97 132 151 159 155 149 146 150 155 155 152 150 149 146 143 140 145 148 146 144 140 138 136 132 129 127 126 123 121 120 119 118 117 116 115 114 113 113 112 112 113 114 113 111 108 107 106 104 105 108 111 111 108 106 104 103 99 93 94 93 94 101 103 99 98 101 104
162 161 177 220 235 219 277 295 286 271 307 206 274 292 156 147 145 142 143 147 146 155 151 144 143 116 104 148 129 95 103 144 148 150 149 147 147 150 153 154 151 151 150 148 144 141 146 150 148 145 142 139 138 135 131 129 126 123 121 120 119 117 117 116 114 114 113 111 111 110 111 112 111 109 107 109 110 108 108 110 110 109 109 108 106 103 100 96 97 98 94 96 95 91 95 102 108
179 216 169 217 290 277 283 287 281 260 261 262 257 168 148 147 151 147 148 149 147 152 152 156 168 127 121 129 120 108 125 139 137 141 147 148 149 150 152 154 152 152 151 150 147 143 149 153 151 147 144 142 140 137 133 131 127 125 123 121 120 118 115 115 114 114 113 109 108 108 109 109 106 106 106 109 111 111 110 109 109 107 108 109 106 103 102 98 97 99 98 95 90 90 95 100 105
188 235 222 248 272 294 289 268 274 271 259 261 197 152 146 152 155 151 149 144 145 145 142 141 125 127 134 124 109 117 140 140 137 142 149 149 150 151 151 154 153 153 153 152 149 147 152 155 154 150 146 145 142 138 135 133 129 128 126 124 121 119 117 115 115 114 114 111 110 108 105 103 103 104 105 107 109 110 106 105 107 107 110 111 107 104 103 100 98 100 101 96 89 91 94 96 96
191 192 223 278 251 283 306 313 303 313 220 163 135 151 154 156 150 146 144 139 144 139 139 139 116 124 128 118 100 125 143 145 146 148 151 151 151 151 150 152 153 153 153 153 150 149 152 156 156 152 149 146 144 140 139 136 131 130 128 125 122 121 118 115 116 116 117 115 113 110 105 104 102 103 102 104 106 105 102 101 104 107 112 112 107 105 103 102 101 102 102 94 86 87 90 97 103
215 157 181 285 278 275 301 308 309 348 162 178 154 156 163 162 150 147 148 142 144 142 153 164 141 132 124 119 117 136 147 151 151 150 152 153 152 152 150 151 153 154 153 153 150 150 153 156 157 155 152 147 145 142 140 139 133 131 127 124 123 120 117 117 116 116 119 115 113 110 107 104 100 100 101 101 102 102 102 100 101 103 108 108 106 105 104 104 103 105 103 95 89 89 93 102 108
229 170 148 283 276 280 294 297 298 319 173 178 160 156 163 169 158 151 148 143 152 155 157 153 143 134 117 122 129 144 153 155 154 152 153 153 153 152 151 152 153 153 155 154 150 150 154 156 158 157 154 149 146 143 140 139 134 131 128 125 124 120 119 118 116 114 116 115 113 110 107 104 100 101 100 100 98 100 103 102 100 101 104 107 108 107 106 105 105 107 105 101 96 95 96 96 97
216 212 224 266 277 279 275 271 258 225 153 146 146 152 167 173 150 147 144 145 155 149 134 140 144 127 114 132 142 158 157 156 156 153 153 153 153 153 152 153 153 153 155 156 152 152 156 157 158 158 156 153 149 146 143 139 136 134 130 127 125 122 121 119 116 114 113 113 110 108 106 106 104 103 101 99 98 100 104 104 102 101 105 108 109 108 108 107 106 108 107 105 102 101 99 98 99
207 237 228 261 284 272 245 236 252 191 136 149 151 153 160 130 137 152 154 150 134 121 124 140 159 137 146 163 166 166 158 156 156 153 153 153 153 154 153 153 153 155 157 158 157 156 158 159 161 161 160 157 153 152 148 143 140 136 132 129 126 125 125 121 118 115 114 112 109 109 108 107 106 103 102 99 99 100 102 102 101 101 103 106 108 108 106 107 107 106 105 103 100 100 102 106 106
210 234 234 260 266 255 205 197 229 169 139 150 153 158 150 112 138 149 149 137 118 139 137 152 180 187 171 173 162 159 157 155 155 154 153 152 152 153 153 155 156 158 161 161 162 161 162 162 164 165 163 162 157 154 151 147 144 139 135 131 129 128 127 125 122 118 117 115 115 116 114 112 109 105 103 100 100 98 99 100 101 100 99 101 102 103 103 104 106 104 103 96 86 84 90 98 91
203 228 232 243 237 246 202 185 231 86 126 146 160 171 158 131 133 111 130 134 131 150 136 133 163 33 162 155 147 153 154 153 155 155 153 153 153 155 157 159 161 162 165 167 167 166 165 165 168 168 167 167 161 157 154 151 149 143 139 136 133 131 131 130 127 123 121 119 120 122 119 117 112 111 107 104 104 102 101 99 99 99 96 97 95 96 98 100 103 103 102 96 88 79 77 78 73
195 206 224 236 231 236 212 153 25 27 142 156 172 180 171 152 145 133 142 139 135 143 118 111 97 84 120 130 141 150 152 154 157 158 157 158 158 159 162 163 166 166 167 171 171 170 168 167 172 172 171 171 166 162 159 155 154 149 144 142 139 138 135 132 131 131 130 128 128 127 124 121 118 114 110 107 105 105 106 100 97 98 96 96 95 94 96 97 98 97 96 96 97 94 90 82 74
202 205 230 231 215 212 251 292 4 352 170 161 173 182 183 162 149 155 158 148 145 142 128 120 104 105 120 132 144 150 154 158 161 162 161 162 163 164 165 166 168 168 169 172 173 173 171 171 173 174 174 174 170 166 163 159 158 156 150 149 146 144 140 137 139 140 139 134 132 131 126 123 119 111 108 110 108 107 108 105 102 100 100 101 101 98 96 94 91 91 96 99 95 94 105 100 87
205 215 237 237 241 254 265 273 287 304 275 169 171 176 186 164 150 170 164 155 165 163 150 145 135 134 139 143 149 152 157 161 164 166 165 165 167 167 168 168 169 170 171 172 173 174 175 175 174 176 177 176 175 171 168 165 163 160 157 156 153 150 147 145 147 147 145 139 135 134 130 126 120 112 111 113 112 112 110 110 109 108 109 108 107 99 93 93 89 90 97 97 79 79 96 95 90
191 208 230 232 251 252 245 296 295 280 230 164 167 173 183 167 160 177 161 159 186 190 175 165 154 147 148 152 155 158 161 164 167 168 168 168 169 169 169 169 170 170 171 172 173 176 177 178 176 177 178 179 179 175 173 172 168 165 163 163 161 158 155 153 154 155 152 147 142 140 139 134 126 120 118 116 118 118 113 112 113 114 115 111 105 94 89 89 85 85 83 79 66 70 86 85 83
205 217 237 242 246 264 279 57 49 25 113 149 168 183 175 161 176 183 173 180 202 197 184 165 154 151 153 157 159 163 166 167 170 171 171 171 171 171 170 170 170 169 171 174 176 177 179 180 179 178 179 181 183 179 178 178 173 171 171 171 169 166 163 160 161 164 163 159 154 149 146 144 137 129 124 123 123 121 116 115 117 117 115 111 103 91 88 85 78 78 72 69 66 69 75 72 73
229 227 242 244 251 267 275 292 317 346 308 186 186 187 163 169 191 190 192 202 178 162 168 154 151 153 154 157 162 167 171 172 173 174 173 173 173 173 172 171 171 171 173 176 176 178 181 182 182 180 180 182 184 184 182 181 180 178 178 178 176 173 170 167 169 171 172 169 163 154 150 150 146 139 135 134 129 124 122 122 123 121 119 116 108 95 87 82 75 71 68 65 63 67 60 48 47
237 245 250 248 254 260 269 287 291 298 267 239 210 182 179 191 195 189 203 210 136 138 148 145 147 151 154 158 165 170 173 175 175 175 175 175 176 175 173 173 173 173 175 176 177 179 182 183 184 184 183 182 184 186 185 185 185 184 185 184 182 181 179 175 176 176 174 172 169 163 159 158 155 151 147 145 142 135 130 129 128 127 127 126 118 100 84 80 76 71 69 62 57 55 38 23 15
231 243 257 252 257 264 272 284 284 286 273 246 203 195 200 199 182 186 205 201 146 142 141 143 147 151 158 163 166 170 173 176 175 175 176 177 177 176 176 176 175 176 177 177 178 180 183 184 186 187 186 185 185 187 188 189 189 187 188 188 188 189 185 184 185 181 177 174 174 171 167 166 164 160 158 154 151 147 144 141 134 134 136 141 133 102 89 84 75 71 66 60 55 49 38 12 356
225 231 251 258 261 275 281 282 279 284 279 218 202 213 210 193 178 201 205 185 146 142 144 147 151 157 163 166 168 170 173 176 176 176 177 177 178 179 180 179 179 181 179 178 179 182 184 185 188 189 189 188 187 187 191 192 191 190 191 191 193 193 190 191 189 189 186 182 180 176 173 172 171 170 166 160 156 155 157 154 148 147 153 162 156 125 115 99 79 68 57 56 56 60 51 6 350
224 230 246 256 267 276 277 278 274 278 275 228 221 232 211 184 197 217 188 166 148 144 150 153 157 163 167 169 170 171 174 175 176 176 176 178 181 183 182 183 183 182 180 180 181 182 184 186 189 190 190 192 191 190 193 194 193 192 194 194 195 195 193 192 192 197 198 192 188 182 179 177 177 177 170 162 159 164 167 166 167 164 167 179 172 162 144 117 99 82 59 50 40 66 42 348 334
266 244 253 252 264 269 264 265 267 271 264 228 222 239 208 179 209 219 167 157 155 151 156 160 164 167 169 171 170 173 176 174 175 176 179 181 183 184 184 184 183 182 182 182 182 182 185 188 189 190 192 194 194 195 196 195 195 194 196 197 199 198 195 194 197 202 201 199 195 189 189 187 186 183 175 168 166 168 171 173 179 177 179 186 178 178 167 129 110 99 70 56 13 31 3 319 304
253 271 278 269 275 270 255 250 254 246 246 219 203 233 208 191 214 204 159 159 160 157 161 165 168 168 169 172 171 175 177 175 177 182 185 184 184 184 184 185 183 183 184 183 182 183 186 188 190 191 192 195 196 199 202 202 199 197 197 200 201 200 198 198 201 203 202 201 200 196 196 195 195 194 188 184 182 183 183 186 200 198 194 192 186 183 177 158 95 25 348 11 359 358 343 305 293
238 252 267 281 289 273 248 231 232 228 232 189 181 239 224 207 211 179 155 163 164 161 166 169 169 169 171 174 174 176 178 179 182 186 187 185 185 185 183 184 183 182 182 183 185 185 186 187 190 193 194 198 198 200 206 208 208 204 201 202 202 201 202 205 207 206 204 202 203 204 202 201 203 204 204 204 203 211 213 210 218 213 203 197 197 198 204 258 290 357 338 346 348 343 331 305 293
218 225 238 254 265 260 239 196 206 212 205 176 191 252 247 222 199 169 161 166 168 169 171 171 171 171 173 176 177 179 181 185 187 188 188 186 185 184 183 183 182 182 181 183 187 186 187 188 189 193 196 198 199 200 205 209 213 213 209 210 208 205 205 210 212 210 207 204 207 210 208 207 209 212 217 220 221 226 232 233 226 216 205 200 205 216 230 271 303 354 343 346 342 333 322 302 288
201 204 215 215 229 252 252 207 199 208 186 176 197 247 258 258 200 169 168 170 172 173 173 173 174 175 175 178 180 182 184 187 190 190 190 189 186 185 185 184 184 185 184 184 186 187 190 190 190 194 196 197 200 202 204 208 214 217 218 218 216 213 211 214 215 213 211 209 211 216 215 213 214 219 224 228 233 236 238 241 233 222 213 209 215 226 242 278 302 319 331 337 333 341 335 304 272
200 215 219 189 203 237 247 220 211 212 183 179 201 234 261 263 193 169 171 175 175 173 175 176 177 177 177 180 181 182 183 186 191 194 192 190 190 189 187 187 187 187 187 185 185 188 191 192 193 195 196 198 200 203 205 207 212 217 220 222 222 219 217 218 217 216 216 215 216 220 220 219 221 225 228 232 238 241 244 245 240 232 223 221 223 230 245 271 292 307 325 308 298 331 336 288 252
193 213 223 192 203 228 234 232 212 204 200 192 204 228 242 228 153 171 175 176 178 177 178 179 178 180 179 181 182 183 184 186 191 193 192 190 190 190 189 189 189 188 189 188 187 189 191 192 195 196 197 198 201 204 205 206 213 217 220 223 225 223 221 222 221 219 220 220 221 221 221 222 224 228 231 234 238 243 248 246 242 235 228 228 230 237 250 268 284 299 324 303 288 312 303 261 269
200 200 209 203 211 231 228 224 181 185 205 208 203 224 239 225 154 175 182 179 182 182 181 179 179 180 180 182 185 186 187 190 192 191 190 190 190 190 190 190 189 189 190 190 191 192 192 193 196 198 198 199 202 205 204 206 213 217 219 222 225 227 225 224 223 223 222 223 223 221 219 220 224 229 232 236 239 245 250 247 242 234 230 231 233 240 248 256 271 281 305 302 295 308 284 246 260
211 207 211 211 212 229 226 225 229 180 202 214 211 224 236 228 191 184 186 185 188 185 179 180 181 181 183 185 188 189 191 194 192 189 189 189 190 190 190 190 189 190 190 190 191 193 195 195 196 199 199 199 200 203 203 203 208 214 218 221 224 227 226 225 225 225 224 226 224 221 219 219 224 229 233 237 239 242 249 249 242 234 231 231 232 237 241 244 258 269 274 278 282 291 255 188 200
236 209 216 222 222 232 224 220 247 231 220 223 219 228 238 234 212 194 187 187 191 186 181 182 183 183 185 189 192 193 195 194 188 188 190 190 190 190 190 190 190 190 191 190 191 194 196 196 197 199 200 199 198 199 200 200 206 211 213 217 220 225 226 226 227 226 227 228 226 222 221 223 226 231 236 237 237 237 244 247 240 234 231 232 234 236 239 244 249 255 257 257 262 266 257 214 186
257 221 216 226 226 237 244 237 261 244 237 238 227 234 243 239 220 197 184 187 194 191 186 185 186 188 189 192 194 194 192 189 186 188 191 191 191 190 190 191 191 191 191 191 192 194 196 198 200 200 199 199 200 201 202 203 210 214 214 217 219 222 226 227 226 228 229 229 227 224 224 227 229 233 237 236 235 235 240 245 241 235 233 234 238 239 242 247 250 251 251 251 257 263 266 255 222
243 239 227 230 214 244 264 252 251 241 238 248 234 238 251 246 224 200 188 193 201 197 191 188 187 188 191 193 193 190 187 187 189 190 191 192 193 191 191 193 193 193 193 193 194 194 196 199 201 201 200 200 203 204 206 209 215 218 219 221 221 220 226 228 226 228 229 229 229 227 228 230 232 235 236 235 234 235 239 245 243 239 237 238 240 243 245 248 250 252 251 248 255 262 261 237 217
233 232 233 228 194 221 244 223 221 239 239 253 252 250 258 252 220 204 201 202 203 200 199 196 192 192 193 193 190 188 187 187 188 190 190 192 193 193 194 195 194 194 194 195 195 195 197 199 200 201 201 201 203 205 210 214 217 218 220 223 224 223 227 230 230 231 231 231 231 230 230 231 234 236 235 234 235 237 242 245 246 244 241 241 242 245 248 250 252 252 253 252 251 256 257 242 223
226 229 233 228 213 225 246 316 343 273 234 237 249 262 261 242 224 218 206 206 207 200 199 201 203 202 196 191 192 193 191 189 187 189 190 191 193 194 196 197 194 194 197 197 195 196 198 199 200 201 201 203 206 210 213 214 213 214 214 216 220 221 223 225 226 228 230 231 231 231 231 231 233 236 235 236 237 241 245 247 248 247 245 244 242 243 247 250 251 250 252 254 252 255 261 264 246
224 227 231 232 234 237 257 292 305 285 231 208 214 245 254 222 227 229 195 197 210 200 197 204 205 201 196 193 196 197 196 195 192 191 190 191 192 192 194 197 195 195 198 198 196 197 198 198 199 200 202 205 208 211 213 209 208 208 205 202 201 203 206 209 216 220 223 226 226 227 229 230 231 234 236 238 239 241 245 248 249 249 249 246 243 243 245 248 250 247 249 253 252 254 260 265 264
232 221 221 226 236 241 248 261 264 258 255 207 206 241 252 215 227 227 189 192 207 200 201 208 205 198 199 200 197 195 197 197 196 196 194 192 191 191 193 195 196 196 197 196 196 197 198 197 198 199 202 205 206 209 209 204 204 204 204 204 201 201 202 209 220 222 222 224 224 224 228 229 229 231 235 237 238 240 244 247 249 251 251 248 245 244 245 246 247 244 246 251 253 258 259 262 267
236 206 198 212 227 234 238 247 247 257 286 287 251 242 260 249 234 214 191 200 206 200 206 211 205 200 202 205 201 198 198 196 195 196 195 194 193 193 194 194 196 197 196 195 195 197 196 195 197 199 202 205 205 206 205 202 201 202 204 206 204 207 208 213 221 222 223 226 227 227 229 231 230 229 233 236 236 239 243 245 248 250 251 249 247 247 247 245 244 244 247 249 253 259 257 258 266
232 176 180 201 218 227 231 241 247 258 279 268 241 214 252 252 228 177 193 209 212 203 208 211 204 202 204 206 205 201 200 198 196 195 194 194 194 195 196 194 194 196 196 195 195 195 195 195 198 200 202 204 205 205 205 204 205 205 205 204 204 209 213 215 219 221 223 226 228 230 232 232 232 231 233 236 237 239 243 245 247 249 250 250 249 248 247 246 245 245 246 249 253 257 258 258 259
214 163 187 202 211 219 223 232 244 251 250 252 240 211 239 257 228 197 193 210 214 207 211 212 205 205 206 206 207 203 200 199 199 197 195 195 195 196 196 195 193 194 196 196 194 194 194 195 197 200 202 203 204 206 207 206 207 207 205 204 204 207 210 210 211 215 220 223 226 230 232 233 233 233 234 237 238 239 241 244 246 248 250 252 252 250 248 249 248 246 246 250 254 256 259 262 258
186 176 198 199 204 209 217 222 231 247 244 245 240 219 225 259 242 206 199 213 206 196 209 212 206 208 209 208 209 205 201 200 199 198 196 196 196 196 196 196 195 194 194 193 192 193 194 194 196 199 202 203 203 205 206 206 206 206 205 206 206 206 206 205 204 207 214 219 222 226 231 232 232 233 235 237 239 239 240 243 245 248 250 252 253 253 252 251 248 247 249 251 254 256 258 262 261
192 198 203 188 188 191 209 204 202 235 244 234 229 217 217 243 242 199 202 213 198 194 208 207 203 207 207 208 209 205 203 201 196 195 194 193 194 195 196 197 196 194 193 192 191 192 193 194 195 197 200 201 202 203 205 206 205 204 206 207 208 207 204 204 205 206 210 215 218 222 227 230 231 232 235 237 239 239 240 242 245 248 250 251 253 254 255 255 249 246 249 251 252 254 255 258 259
203 204 200 199 195 185 204 202 202 230 240 222 213 208 217 243 252 227 219 217 204 207 214 205 202 204 204 207 207 205 205 201 195 192 191 190 191 193 194 195 193 192 192 191 191 192 192 193 194 195 198 200 201 202 203 204 204 204 206 207 208 207 205 207 208 208 211 215 216 218 222 226 228 231 233 236 238 237 238 240 244 247 249 251 253 253 255 257 256 251 250 252 252 251 253 255 257
205 202 198 203 199 202 212 209 217 230 234 217 195 199 229 250 255 230 225 229 221 217 220 212 204 202 203 205 205 204 204 201 196 192 191 191 191 193 194 193 191 190 191 192 192 192 191 191 193 195 198 199 200 201 202 203 204 206 207 206 207 206 206 209 210 210 213 216 218 219 222 224 226 230 233 236 238 237 237 238 242 245 249 252 253 253 253 255 258 256 253 252 250 251 254 255 255
205 202 203 210 204 213 216 209 223 231 237 206 183 187 223 223 229 207 217 229 225 217 218 215 208 204 204 204 202 203 203 201 197 193 195 195 192 192 193 192 190 190 192 193 192 191 190 190 191 194 196 197 199 201 202 203 205 207 208 207 206 207 208 209 211 213 215 218 219 220 223 225 227 232 236 239 240 239 238 238 240 244 248 250 252 252 251 252 255 257 255 252 248 250 254 254 252
204 196 206 217 210 211 217 227 233 233 256 221 192 209 234 234 306 304 233 236 227 218 214 210 210 206 202 204 201 202 205 201 197 195 197 198 193 190 191 191 191 190 192 194 193 190 189 188 190 193 195 196 198 200 201 204 205 206 207 207 207 208 209 208 210 214 217 219 220 221 225 228 230 234 238 241 242 241 241 240 241 244 247 250 251 251 250 249 252 255 255 254 249 248 252 252 249
187 193 212 211 201 207 218 235 226 221 246 229 201 232 243 272 277 251 220 237 232 222 214 211 214 203 194 199 202 203 204 200 198 197 198 197 191 189 192 193 192 192 193 194 192 189 188 188 189 192 194 196 198 200 201 203 205 205 206 207 207 207 209 209 211 215 216 218 221 223 226 229 232 234 238 240 241 242 242 241 242 244 246 249 251 251 250 248 250 253 254 255 253 248 251 252 250
194 201 204 181 187 211 222 231 208 213 237 221 200 229 229 225 244 219 204 217 227 220 212 214 216 203 195 200 202 202 202 199 198 197 195 193 189 190 194 195 194 194 194 193 190 187 188 190 191 192 193 195 197 198 200 202 203 204 205 206 207 208 209 210 211 214 213 213 218 222 224 227 231 234 236 238 240 241 242 242 242 243 245 247 249 250 250 248 249 251 252 255 256 252 249 251 253
236 226 183 172 201 207 204 222 222 220 235 231 209 225 232 227 224 200 201 210 220 218 209 215 215 203 201 206 205 202 200 198 198 197 195 192 191 192 193 196 198 196 194 192 189 188 190 192 192 193 195 196 197 197 199 200 202 203 204 205 207 208 209 209 209 210 211 213 217 220 222 226 230 232 234 237 238 239 241 242 243 243 244 245 247 248 249 249 248 250 251 251 254 253 248 247 250
230 233 193 196 218 211 201 210 222 224 232 237 222 217 235 235 223 224 217 210 217 219 209 214 215 204 202 208 208 201 195 197 199 199 198 193 194 195 194 196 197 195 192 190 190 192 193 193 193 194 196 195 195 196 196 198 200 201 202 203 206 208 208 208 208 209 213 216 218 220 221 224 227 231 233 236 237 237 240 242 243 243 243 244 246 246 247 248 248 249 249 246 247 249 246 243 246
215 220 213 208 205 205 212 212 215 222 228 231 228 229 238 228 196 224 233 221 220 221 216 217 211 204 206 209 207 196 190 197 201 201 200 195 195 197 196 196 196 193 190 188 190 193 194 194 194 195 195 194 194 195 195 197 198 198 200 202 203 206 209 209 208 211 214 217 218 220 222 222 225 229 231 233 235 237 240 242 243 242 242 244 246 246 245 246 247 248 248 246 243 242 242 243 245
256 239 232 221 214 210 216 218 210 215 232 231 230 247 248 214 172 216 227 223 220 218 218 223 216 207 208 210 206 197 190 196 200 201 201 197 195 196 197 195 192 190 187 187 191 192 192 194 194 194 194 195 195 195 195 195 195 196 199 202 203 205 208 208 208 210 213 214 216 220 222 222 223 228 231 232 235 237 239 242 242 243 244 245 246 247 246 245 246 247 247 245 244 242 240 240 242
Height
791 793 794 796 796 798 799 800 812 811 811 818 809 807 803 793 794 797 800 798 798 796 789 790 792 793 798 803 804 804 806 808 812 817 820 812 808 814 816 818 820 821 823 824 825 826 827 829 829 830 830 831 832 833 834 835 836 837 838 839 840 841 842 844 845 846 847 848 848 849 850 850 850 851 851 852 852 853 853 853 854 854 855 855 856 856 857 857 857 858 858 858 860 861 862 862 863
792 793 794 797 796 800 802 801 815 817 814 817 807 804 799 792 796 798 799 798 796 792 787 788 791 792 793 795 798 803 807 806 806 808 810 809 811 815 816 819 820 822 824 825 826 827 829 829 830 831 831 833 834 835 836 837 838 838 839 840 841 842 843 845 846 847 847 849 849 850 850 850 850 851 852 852 853 853 854 854 855 855 855 856 857 858 858 859 859 859 860 860 862 861 862 863 863
792 794 794 797 797 799 802 806 817 820 821 818 806 798 795 796 797 795 794 793 790 787 788 789 792 794 795 799 801 805 810 807 805 805 809 810 811 815 817 819 821 823 824 826 827 828 830 831 832 832 833 834 835 836 837 838 839 839 840 841 842 843 844 846 847 848 848 849 850 850 851 851 851 852 852 853 854 854 855 855 856 856 857 858 859 859 859 860 860 860 861 861 862 861 861 862 864
792 794 795 795 799 802 806 813 814 817 821 817 808 797 794 796 794 793 791 788 786 786 789 791 796 795 795 805 804 804 810 807 805 805 808 811 811 814 817 819 821 824 825 827 828 829 831 832 833 834 835 836 837 838 838 839 840 841 842 842 844 845 846 847 848 849 849 850 851 851 852 852 852 852 853 854 855 855 856 856 857 858 858 859 860 860 861 861 861 861 861 860 860 860 861 862 864
793 795 795 794 801 804 805 810 808 814 815 809 807 797 794 793 791 792 789 787 785 787 789 791 799 796 795 802 802 805 808 806 807 805 807 811 812 815 817 819 822 824 826 828 829 831 832 833 834 835 836 837 838 839 839 840 841 842 843 844 845 846 847 848 849 849 850 851 851 852 852 852 853 853 854 855 856 856 857 857 858 859 859 860 860 861 861 861 862 862 862 861 860 861 862 863 864
793 795 796 795 799 799 805 810 808 812 803 797 802 795 792 790 789 791 788 788 785 786 788 790 797 798 801 803 801 803 804 805 807 806 807 810 813 816 818 820 823 825 827 828 830 831 833 834 835 836 837 838 839 840 841 841 842 843 844 845 846 847 848 849 850 850 851 852 852 853 853 853 854 854 855 855 856 857 858 858 859 860 860 861 861 862 862 862 862 863 863 862 862 863 863 864 865
793 796 798 800 800 799 808 811 806 807 795 791 796 791 790 789 787 789 790 791 790 788 788 791 791 797 807 804 803 803 802 804 804 806 808 810 814 816 819 821 824 826 827 829 831 832 834 835 836 838 838 840 840 841 842 843 844 844 845 846 847 848 849 850 850 851 852 852 853 853 853 854 855 855 856 857 857 858 858 859 860 861 861 862 862 863 863 863 863 863 864 864 864 864 866 867 869
792 795 796 802 805 802 807 807 801 800 793 788 789 788 788 787 786 789 791 792 793 792 791 792 788 799 809 802 806 806 802 804 804 807 809 811 815 817 820 822 824 826 828 830 831 833 835 836 838 839 840 841 841 842 843 844 845 845 846 847 848 849 850 851 851 852 852 853 853 854 854 855 855 857 858 858 858 859 859 860 861 861 862 863 863 863 864 864 865 865 865 865 866 866 868 870 872
792 795 795 802 805 804 806 806 800 796 793 788 787 787 785 785 785 788 791 791 791 791 792 791 788 800 808 805 809 806 803 806 806 808 810 813 816 818 821 823 825 827 829 830 832 834 836 838 839 840 841 842 843 844 844 845 846 847 848 848 849 850 851 852 852 853 853 854 854 855 855 855 856 857 858 859 859 860 860 861 861 862 863 863 864 864 865 865 866 866 866 866 867 868 869 871 872
794 795 798 802 805 810 809 804 800 794 791 787 786 785 785 784 784 786 789 791 790 791 793 788 790 800 806 809 811 805 805 806 807 811 812 815 817 819 822 824 827 828 830 832 833 835 837 839 839 841 842 843 844 844 845 846 847 848 849 850 850 851 852 853 853 854 854 855 855 856 856 856 857 857 858 859 860 860 861 861 862 862 863 864 865 865 866 866 867 867 868 868 869 870 871 871 871
797 795 796 803 808 815 811 803 798 792 789 787 786 784 783 782 784 786 787 791 789 792 793 790 797 801 803 810 810 806 806 807 808 811 813 816 818 820 823 825 828 829 831 832 834 836 837 839 841 842 843 844 845 845 846 847 848 849 850 851 851 852 853 854 854 855 855 856 856 857 857 857 858 858 859 859 860 861 861 862 862 863 864 865 866 866 867 868 868 868 869 869 870 871 871 872 873
800 798 797 808 811 812 806 802 798 792 790 789 789 784 780 781 785 788 788 792 790 793 793 791 796 797 805 812 809 807 806 809 810 811 815 817 819 822 824 826 828 830 832 833 835 836 838 840 841 843 844 845 845 846 847 848 849 849 851 851 852 853 854 855 855 856 856 857 857 858 858 858 859 859 860 860 861 861 862 862 863 864 864 866 866 867 868 869 870 870 870 871 871 872 872 874 875
798 797 800 810 807 805 803 801 797 793 793 788 787 782 779 782 786 786 787 790 791 795 792 788 790 793 807 812 808 808 807 809 811 813 815 818 820 823 825 827 829 831 832 834 835 837 839 840 842 843 844 845 846 847 848 849 850 850 851 852 853 854 854 855 856 857 857 858 859 859 859 860 860 861 861 861 862 862 863 864 864 865 865 866 867 868 869 870 871 871 872 873 874 874 874 875 876
794 793 799 808 803 803 802 798 795 794 793 785 783 781 780 782 783 782 785 792 792 791 788 784 786 795 807 812 812 809 807 810 812 814 816 819 821 823 826 827 830 831 833 834 836 837 839 841 842 843 844 846 847 848 849 849 850 851 852 853 854 855 855 856 857 857 858 859 859 860 861 861 861 862 862 862 863 863 864 865 865 866 866 867 868 869 870 871 871 872 873 874 874 875 875 876 876
790 790 797 806 805 803 799 795 793 793 792 783 782 780 781 782 779 782 784 791 792 784 783 785 785 794 804 808 811 806 805 809 811 815 817 820 822 824 827 828 831 832 834 835 837 838 839 841 842 844 845 846 847 848 849 850 851 852 853 854 854 855 856 857 858 858 859 860 860 861 862 862 863 863 863 864 864 865 865 866 866 867 867 868 869 870 871 871 872 873 873 874 874 875 876 877 877
786 790 799 806 806 804 797 792 790 792 789 782 780 778 784 784 778 783 780 781 789 783 784 789 786 791 796 797 800 800 803 809 811 815 817 820 823 825 828 829 832 833 835 836 837 839 840 842 843 844 845 846 848 849 850 851 852 853 854 855 855 856 857 857 858 859 860 860 861 861 862 863 863 864 864 865 865 866 866 867 867 868 868 869 870 871 872 872 873 873 873 874 874 875 876 877 877
785 793 804 807 805 802 794 789 788 789 786 782 781 779 786 788 780 781 776 777 787 788 787 789 786 786 790 791 794 798 804 808 811 815 817 820 822 825 828 830 832 833 835 836 838 839 841 842 843 845 846 847 848 849 851 852 853 854 854 855 856 857 857 858 859 860 860 861 862 862 863 863 864 865 865 866 866 867 867 868 868 869 869 870 871 871 872 873 873 874 874 874 875 875 876 877 877
791 799 804 805 801 796 788 785 783 782 783 783 782 779 783 788 785 780 779 784 787 790 790 788 788 787 789 792 795 800 805 808 811 814 816 819 821 823 826 829 831 833 835 836 838 839 841 843 844 845 846 847 849 850 851 852 853 854 855 856 857 858 858 859 860 860 861 862 862 863 863 864 865 865 866 867 867 867 868 869 869 870 870 871 872 872 873 874 874 875 875 876 876 877 877 878 879
793 797 801 799 793 787 781 780 779 779 781 780 780 778 780 783 783 780 785 792 789 793 795 792 794 794 793 794 798 802 805 808 810 812 815 817 819 821 824 827 830 832 834 836 837 839 841 843 844 845 846 848 849 850 852 853 854 855 856 857 857 858 859 860 861 861 862 862 863 864 864 865 866 866 866 867 868 868 869 869 870 871 871 872 873 873 874 874 875 875 876 877 877 878 879 879 880
790 794 800 793 784 783 778 777 778 777 777 779 781 779 780 780 778 780 786 792 791 793 794 793 797 797 797 797 798 802 805 808 810 812 814 816 819 821 823 825 828 831 833 835 837 839 841 842 844 845 847 848 850 851 852 853 854 855 856 857 858 859 860 861 861 862 863 863 864 865 865 866 866 867 867 868 868 869 869 870 871 871 872 873 873 874 874 875 875 876 877 877 878 879 879 880 880
787 790 793 785 780 783 777 775 775 774 774 777 780 780 782 778 776 780 784 792 794 789 786 786 792 794 796 797 798 801 804 807 809 811 813 816 818 821 823 825 828 830 833 835 837 838 840 842 844 845 847 848 850 851 852 853 855 856 857 858 858 859 860 861 862 863 863 864 865 866 866 867 867 868 868 868 869 869 870 871 871 872 873 873 874 874 875 876 876 877 877 878 878 879 879 880 880
786 785 782 779 779 783 776 773 774 773 773 777 780 782 781 777 778 779 781 789 788 780 778 779 783 787 790 794 797 800 803 805 807 810 812 814 817 820 822 825 828 830 832 834 836 838 840 842 843 845 847 849 850 851 853 854 855 856 857 858 859 860 860 861 862 863 864 865 865 866 867 867 868 869 869 869 870 870 871 872 872 873 873 874 875 875 876 877 877 878 878 878 879 879 879 880 880
788 783 777 777 777 780 775 772 773 773 776 779 779 777 776 779 781 777 777 780 775 770 772 777 781 784 786 790 795 798 801 803 805 808 810 813 815 818 821 823 826 829 831 834 836 838 839 841 843 845 847 848 850 852 853 854 855 856 857 858 859 860 861 862 863 863 864 865 865 866 867 868 869 869 870 870 871 871 872 872 873 874 874 875 875 876 877 877 878 878 878 878 879 879 880 880 881
788 785 779 777 775 776 773 771 771 772 776 775 773 774 776 781 781 777 777 774 769 769 771 776 781 784 788 791 793 796 799 802 805 808 811 813 816 818 821 823 826 828 830 833 835 837 839 841 843 844 846 848 850 851 853 854 855 856 857 858 859 860 861 862 863 864 865 865 866 867 867 869 869 870 871 871 872 872 873 873 874 875 875 876 876 877 878 878 879 879 879 879 879 880 880 881 881
787 785 780 776 775 773 770 770 770 770 771 770 771 776 776 776 776 777 776 772 769 770 772 776 781 785 789 791 793 795 798 802 805 809 811 814 817 819 822 823 825 828 829 832 834 836 838 840 842 844 846 848 850 851 853 854 855 857 858 859 860 860 861 862 863 864 865 866 866 867 868 869 870 871 871 872 872 873 874 874 875 876 876 877 877 878 878 878 879 879 880 880 880 880 880 881 881
782 780 779 777 776 772 770 769 769 769 769 769 774 777 774 770 773 777 773 770 770 770 774 778 781 786 789 791 793 795 797 800 803 806 810 813 816 818 820 822 824 826 828 831 833 835 838 840 842 844 845 847 849 851 852 854 855 856 858 859 860 861 862 862 863 864 865 866 867 867 868 869 870 871 871 872 873 873 874 875 875 876 877 877 878 878 879 879 879 880 880 880 881 881 881 881 881
775 777 777 776 776 771 770 770 767 768 768 768 774 777 772 769 775 780 770 766 769 772 777 778 781 786 788 790 792 794 796 798 801 805 809 811 814 816 818 821 823 825 827 830 832 834 837 839 841 843 845 847 848 850 852 853 855 856 857 859 860 861 862 862 863 864 865 866 867 868 869 869 870 871 872 872 873 874 874 875 876 876 877 878 878 879 879 879 880 880 880 881 881 881 882 882 882
773 776 778 776 775 771 769 769 766 767 768 765 769 774 772 771 777 775 767 765 768 773 779 779 782 785 786 789 791 794 796 798 801 803 805 807 810 813 815 817 820 823 826 828 831 833 836 838 841 842 844 846 848 849 851 853 854 856 857 858 860 861 861 862 863 864 865 866 867 868 869 870 871 871 872 873 873 874 875 876 876 877 877 878 878 879 879 880 880 880 881 881 881 882 882 882 882
774 776 781 778 774 772 767 765 764 767 768 760 765 778 779 776 775 767 763 765 768 773 779 780 782 784 786 788 790 792 794 797 800 801 803 805 808 810 812 815 818 821 824 827 830 832 835 837 840 842 844 845 847 848 850 852 853 855 856 858 859 860 861 862 863 864 864 866 867 868 869 870 871 872 872 873 874 874 875 876 877 877 878 878 878 879 879 880 880 881 881 881 882 882 882 882 882
777 777 782 782 781 775 762 760 762 765 766 756 766 788 785 773 767 762 761 764 769 775 778 780 782 783 786 787 789 791 792 795 796 798 801 804 807 808 811 814 817 820 822 826 829 831 834 836 839 841 843 844 846 848 849 850 852 854 855 857 858 859 861 862 862 863 864 866 867 868 869 870 871 872 872 873 874 875 875 876 877 877 878 878 879 879 879 880 880 881 881 882 882 882 882 883 883
778 780 782 784 790 779 759 758 763 766 763 754 768 789 781 767 763 760 759 762 768 775 777 778 781 782 784 786 788 790 790 792 794 797 800 802 805 807 810 813 816 819 821 824 827 829 832 835 837 839 841 843 845 847 848 849 851 852 854 855 857 859 860 861 862 863 864 865 867 868 869 870 871 872 873 874 874 875 876 876 877 878 878 878 879 879 880 880 881 881 881 882 882 882 883 882 882
777 785 787 785 789 779 761 757 760 765 762 754 768 785 778 765 760 757 757 760 765 772 775 777 779 780 783 784 786 788 788 790 793 796 798 801 804 806 809 812 814 817 819 822 825 828 831 833 836 838 840 842 844 846 847 849 850 852 853 855 856 858 859 860 862 863 864 865 867 868 869 870 871 872 873 874 874 875 876 877 877 878 878 879 879 879 880 880 881 881 882 882 882 883 883 883 883
779 784 787 785 786 780 768 760 755 757 761 760 767 778 778 767 758 756 756 759 763 769 773 775 777 778 780 782 784 786 788 790 792 794 796 799 802 804 807 810 813 815 818 821 823 826 829 832 834 836 838 841 843 845 847 848 849 851 852 854 856 857 858 860 861 863 864 865 866 867 868 870 871 872 873 874 874 875 876 877 877 878 878 879 879 879 880 880 881 881 882 882 882 883 883 883 883
784 783 783 782 781 779 775 767 755 753 761 766 766 770 771 764 759 758 756 757 762 768 771 772 775 777 778 780 782 784 786 788 789 790 793 797 800 803 806 808 811 814 817 819 822 825 827 830 833 835 837 840 842 844 846 847 848 850 852 853 855 856 858 859 861 862 863 864 865 867 868 869 871 872 873 874 874 875 876 876 877 877 878 878 879 880 880 880 881 881 882 882 882 883 883 883 884
783 784 783 783 779 777 776 770 759 756 762 766 768 769 765 760 760 760 757 757 761 764 766 769 772 774 777 778 780 782 783 784 784 786 790 794 798 801 804 807 810 813 816 818 821 824 826 829 831 834 836 838 841 843 844 846 847 849 851 852 854 855 857 858 860 861 862 864 865 866 867 869 870 871 872 873 874 875 875 876 877 877 878 878 879 880 880 881 881 881 882 882 882 883 883 883 884
776 778 780 781 779 775 771 766 757 756 765 766 767 768 763 760 760 760 758 756 760 762 764 768 771 773 776 777 778 779 781 781 780 784 788 791 795 799 802 805 808 811 814 816 819 822 824 827 830 832 834 836 839 841 843 845 846 847 849 851 852 853 855 857 859 860 861 863 864 865 867 868 869 870 872 873 873 874 875 876 876 877 878 878 879 880 880 881 881 882 882 883 882 883 883 883 884
775 776 778 778 777 773 766 764 757 753 765 767 761 764 761 758 757 756 757 758 761 764 766 768 770 771 773 775 775 776 777 777 779 783 786 790 793 796 800 803 806 809 812 814 816 819 822 825 827 829 832 834 836 838 840 842 843 844 847 849 850 852 854 855 857 859 860 862 863 864 866 867 868 869 871 872 873 874 874 875 876 877 877 878 879 879 880 880 881 881 882 882 883 883 883 883 884
777 778 778 777 777 772 763 764 759 753 764 765 758 762 760 754 754 752 755 760 762 761 763 766 767 768 769 770 772 773 775 776 778 782 784 788 791 794 798 800 803 805 808 811 813 816 819 822 824 826 829 832 833 834 836 838 839 842 844 846 849 851 852 854 856 858 860 861 862 864 865 866 867 869 870 871 872 873 874 875 875 876 877 877 878 878 879 880 880 881 882 882 883 883 884 884 884
777 777 780 780 775 771 766 762 759 756 764 765 759 763 759 750 750 750 752 756 755 753 755 758 760 763 765 766 768 771 774 776 776 779 781 784 788 791 794 797 800 802 805 808 811 814 817 819 821 824 826 828 830 832 833 835 837 840 843 845 848 850 851 853 855 857 859 860 861 863 864 865 866 868 869 870 871 872 873 874 875 876 876 877 877 878 878 879 880 880 881 882 882 883 883 884 884
777 776 780 780 773 774 772 764 761 758 760 762 760 763 757 749 750 750 748 748 749 749 750 752 753 756 758 759 763 766 769 772 773 775 777 780 784 787 790 793 796 800 803 805 808 811 813 816 818 821 823 825 827 829 831 833 836 839 842 844 847 849 851 852 854 856 858 859 860 861 863 864 865 866 868 869 870 871 872 873 874 875 875 876 876 877 878 879 879 880 881 881 882 883 883 883 884
776 773 775 775 771 773 771 766 763 759 757 757 761 770 763 752 756 753 746 746 748 749 751 754 754 753 755 758 761 763 764 767 769 771 773 775 779 782 786 790 793 796 799 801 804 807 809 812 815 818 820 822 824 826 828 832 835 838 841 844 846 848 850 852 853 855 856 857 858 860 861 862 864 865 867 868 869 870 871 872 873 874 875 875 876 877 877 878 879 879 880 880 881 882 882 883 883
776 770 767 769 770 772 771 769 768 770 770 758 762 783 774 753 753 751 746 750 750 749 751 754 753 753 756 758 759 760 762 763 765 766 768 770 774 779 783 787 789 791 794 798 801 804 807 809 812 815 817 819 821 823 827 830 833 836 838 841 844 845 848 849 850 851 853 854 856 858 860 861 863 864 865 866 868 869 870 871 872 873 874 874 875 876 877 877 878 879 879 880 881 881 882 882 883
776 764 760 765 769 772 773 772 774 779 777 760 758 780 779 759 752 746 744 750 750 749 750 749 749 752 753 754 755 757 758 760 762 764 765 767 771 775 778 781 784 787 791 795 798 801 804 807 809 812 814 817 819 822 825 828 831 833 836 838 840 842 844 845 846 849 851 852 855 856 858 860 861 863 864 865 866 867 868 869 870 871 872 873 874 875 876 877 877 878 879 879 880 880 881 882 882
771 757 757 765 768 772 773 773 776 774 769 764 757 767 780 771 754 743 743 749 749 749 749 746 746 748 749 749 750 751 753 755 758 761 762 765 767 770 773 776 780 785 789 792 795 798 801 804 807 809 812 815 817 820 823 825 828 831 833 835 838 839 841 843 845 847 849 851 853 855 856 858 860 861 862 863 864 866 867 868 869 870 871 872 873 874 875 876 876 877 878 878 879 880 880 881 881
762 753 755 761 764 769 769 772 775 770 775 779 763 762 782 776 753 744 746 749 752 750 746 744 743 744 744 744 745 745 747 749 751 755 757 760 763 766 769 773 777 782 786 789 791 795 798 801 804 807 810 812 815 817 820 822 825 828 830 833 835 837 839 842 843 846 848 850 852 853 855 857 858 859 861 862 863 864 865 866 867 868 869 870 871 872 873 874 875 876 877 877 878 879 879 880 881
755 752 755 756 760 763 766 772 772 774 785 787 768 763 781 775 750 746 751 749 748 746 741 739 739 739 739 739 740 741 743 746 747 750 753 756 759 763 767 771 775 778 782 785 789 792 796 798 801 804 807 810 812 815 817 820 822 825 828 830 832 835 837 840 842 844 846 848 850 852 853 855 856 857 859 860 861 862 863 864 865 866 868 869 870 871 872 873 874 875 875 876 877 878 878 879 880
750 754 757 759 761 762 765 767 770 784 789 778 764 760 775 778 752 740 746 742 737 738 738 737 735 736 736 736 737 739 741 743 744 747 750 753 757 761 765 768 771 775 778 782 785 789 792 795 798 801 804 807 810 812 815 817 820 822 824 827 829 832 835 837 839 842 844 846 848 849 851 852 854 856 857 858 859 860 861 862 864 865 866 867 868 870 871 872 873 874 874 875 876 876 877 878 878
751 756 759 767 771 770 775 775 778 794 789 768 757 754 768 777 752 733 732 727 726 730 731 732 733 733 733 732 733 734 735 737 740 744 747 751 755 758 761 764 767 772 774 777 781 785 789 792 795 798 801 804 807 809 812 815 817 819 822 824 827 829 832 834 836 839 841 843 845 847 849 851 852 854 855 856 857 858 860 861 862 863 864 865 867 868 869 870 872 873 873 874 875 875 876 876 877
753 757 762 776 785 786 792 791 786 789 778 759 752 755 764 761 740 728 727 722 722 722 720 723 726 727 727 727 727 728 729 732 736 740 743 746 749 751 754 759 763 767 770 773 777 781 784 788 791 794 797 800 804 806 809 812 814 816 819 821 824 827 829 831 833 836 838 840 842 845 846 848 850 851 852 853 854 856 858 859 860 861 862 863 865 866 868 869 870 871 872 872 873 874 874 875 875
753 756 763 777 788 796 800 793 786 784 773 755 749 758 764 751 731 721 720 719 717 715 715 715 716 719 721 720 721 723 725 728 731 735 738 740 742 745 748 753 757 761 765 769 773 776 780 783 787 791 794 797 800 803 806 809 811 813 816 818 821 824 826 828 831 833 835 837 839 841 844 845 847 848 850 851 852 854 855 857 858 859 861 862 863 864 866 867 868 869 870 871 871 872 873 874 874
749 746 752 763 770 781 788 784 783 782 771 758 756 762 760 747 730 713 708 709 707 709 710 710 711 712 713 714 717 720 722 724 726 729 731 732 734 739 744 748 752 755 760 764 768 772 775 778 782 786 790 793 797 800 803 806 808 811 813 816 818 821 823 826 828 830 832 834 836 839 841 842 844 846 847 849 851 852 854 855 856 858 859 860 861 862 864 865 866 867 868 869 870 871 871 872 873
743 737 749 756 750 756 767 768 766 769 770 763 758 754 740 729 720 707 706 706 702 705 705 706 710 708 710 714 715 717 718 719 721 724 726 728 730 735 739 744 747 751 755 759 762 765 769 773 777 782 786 790 793 797 800 803 806 809 811 813 816 818 821 823 825 827 829 831 834 836 838 840 842 843 845 847 849 850 852 853 855 856 857 858 859 860 862 863 864 865 866 867 868 869 869 870 871
739 741 748 742 734 743 761 767 759 763 775 763 750 747 735 729 721 706 706 710 705 705 705 704 706 705 708 712 711 712 712 713 716 718 720 723 726 731 734 738 742 746 749 752 755 759 763 768 773 778 783 786 790 793 796 800 803 806 808 811 813 815 818 820 822 824 827 829 831 833 836 837 839 841 843 845 847 848 850 851 853 854 855 856 857 858 860 861 862 863 864 865 866 867 868 868 869
738 743 738 732 737 742 752 767 768 771 777 759 744 746 740 739 732 708 705 712 708 705 705 703 703 703 707 707 705 706 705 707 709 710 713 716 719 724 728 732 736 738 742 747 751 756 760 765 769 773 778 781 785 789 793 797 799 803 805 808 811 813 815 817 819 822 824 827 828 831 833 835 836 839 841 842 844 846 848 849 851 852 853 854 855 856 857 858 860 861 861 863 864 865 866 866 867
730 731 723 731 751 753 752 765 769 771 775 762 749 746 736 732 726 711 708 710 705 703 703 702 701 701 703 702 700 701 701 703 706 707 709 712 714 718 722 727 730 734 740 744 748 753 757 761 765 769 773 776 781 785 789 793 796 799 802 805 808 810 812 815 817 819 822 824 826 828 830 832 834 836 838 840 842 844 845 847 848 850 851 852 853 854 855 856 858 859 859 861 861 862 864 864 865
724 725 722 726 738 743 745 751 753 760 768 763 755 751 737 720 711 708 708 703 699 700 700 700 699 697 697 696 695 697 699 701 702 702 705 706 709 712 715 720 724 729 735 739 745 749 753 757 761 765 769 773 777 781 784 788 791 795 798 801 804 807 809 812 814 816 818 820 823 825 827 829 831 833 835 837 839 841 843 844 846 847 848 850 851 852 853 854 855 856 857 859 859 860 861 862 863
729 732 733 729 727 730 735 737 736 744 757 759 758 754 733 708 700 701 701 697 695 694 694 694 693 691 691 689 689 692 694 695 696 696 698 700 702 705 709 714 719 725 730 735 741 745 749 754 757 761 765 769 772 776 780 783 787 791 794 797 800 803 806 809 811 813 815 817 820 821 824 826 828 830 832 834 836 838 840 841 843 845 846 847 848 849 851 852 853 854 855 856 857 858 859 860 861
739 739 734 730 728 731 742 747 733 730 741 744 750 751 727 699 693 694 691 690 688 686 687 688 686 686 685 684 684 686 687 689 690 690 692 694 696 700 704 709 715 722 726 730 735 739 744 748 751 756 760 763 767 771 775 779 783 787 789 793 797 800 803 806 808 811 812 815 817 818 821 823 825 827 829 831 833 834 837 838 840 841 843 844 845 847 849 850 851 852 853 854 855 856 857 857 858